DLH01P LEPA-EDDF

Flight info

Callsign DLH01P
Flight time 1h 49m
Altitude 32000
Route MEROS DCT LAPIT DCT CHELY DCT LUMAS DCT MAXIR DCT LUSOL DCT BODRU DCT OKTET DCT IRMAR/N0452F360 DCT KINES DCT VANAS DCT MOBLO DCT UBIMA DCT SOSAL DCT KORED DCT BERSU N871 DITON/N0452F350 DCT LADOL/N0451F360 T163 EMPAX EMPAX5B
Aircraft A320/M-SDE3FGHIRWY/LB1

Departure

Time 2026-05-05 15:21
Airport Palma de Mallorca Airport (LEPA)

Arrival

Time 2026-05-05 17:10
Airport Frankfurt Main Airport (EDDF)
Time Latitude Longitude Altitude Speed Heading
2026-05-05 14:37 39.55286 2.73294 34 ft 0 kts 196°
2026-05-05 15:12 39.55291 2.73296 33 ft 3 kts 196°
2026-05-05 15:13 39.55312 2.73304 32 ft 3 kts 196°
2026-05-05 15:13 39.55333 2.73313 30 ft 3 kts 193°
2026-05-05 15:13 39.55354 2.73317 31 ft 3 kts 176°
2026-05-05 15:13 39.55372 2.73312 31 ft 3 kts 127°
2026-05-05 15:14 39.55375 2.73303 30 ft 1 kts 58°
2026-05-05 15:14 39.55373 2.73298 30 ft 1 kts 58°
2026-05-05 15:16 39.55379 2.73311 29 ft 7 kts 58°
2026-05-05 15:16 39.55410 2.73378 31 ft 10 kts 59°
2026-05-05 15:16 39.55450 2.73461 31 ft 13 kts 58°
2026-05-05 15:16 39.55498 2.73554 31 ft 12 kts 48°
2026-05-05 15:17 39.55572 2.73536 28 ft 13 kts 329°
2026-05-05 15:17 39.55656 2.73508 26 ft 13 kts 32°
2026-05-05 15:17 39.55708 2.73616 27 ft 17 kts 60°
2026-05-05 15:17 39.55777 2.73755 27 ft 18 kts 57°
2026-05-05 15:18 39.55839 2.73887 24 ft 16 kts 53°
2026-05-05 15:18 39.55912 2.73881 24 ft 7 kts 328°
2026-05-05 15:18 39.55921 2.73873 23 ft 0 kts 328°
2026-05-05 15:19 39.55947 2.73853 22 ft 10 kts 329°
2026-05-05 15:20 39.55999 2.73795 22 ft 9 kts 281°
2026-05-05 15:20 39.55965 2.73706 25 ft 19 kts 238°
2026-05-05 15:20 39.55752 2.73263 26 ft 96 kts 238°
2026-05-05 15:20 39.55281 2.72283 50 ft 155 kts 238°
2026-05-05 15:21 39.54711 2.71058 739 ft 161 kts 240°
2026-05-05 15:21 39.54136 2.69786 1517 ft 165 kts 240°
2026-05-05 15:21 39.53516 2.68438 1844 ft 185 kts 239°
2026-05-05 15:21 39.52788 2.66919 2145 ft 207 kts 239°
2026-05-05 15:22 39.52025 2.65311 2810 ft 211 kts 239°
2026-05-05 15:22 39.51257 2.63690 3528 ft 212 kts 240°
2026-05-05 15:22 39.50479 2.62057 4193 ft 215 kts 240°
2026-05-05 15:22 39.49517 2.60552 4812 ft 226 kts 221°
2026-05-05 15:23 39.48057 2.59537 5142 ft 250 kts 205°
2026-05-05 15:23 39.46385 2.58650 5571 ft 268 kts 207°
2026-05-05 15:23 39.44608 2.57842 6345 ft 274 kts 194°
2026-05-05 15:23 39.42700 2.57976 7192 ft 282 kts 164°
2026-05-05 15:24 39.41061 2.59409 7976 ft 293 kts 133°
2026-05-05 15:24 39.40081 2.61752 8691 ft 304 kts 108°
2026-05-05 15:24 39.39935 2.64486 9453 ft 312 kts 84°
2026-05-05 15:24 39.40446 2.67246 10124 ft 317 kts 71°
2026-05-05 15:25 39.41548 2.69812 10368 ft 340 kts 52°
2026-05-05 15:25 39.43113 2.72247 10538 ft 362 kts 49°
2026-05-05 15:25 39.44817 2.74762 10691 ft 383 kts 47°
2026-05-05 15:25 39.46618 2.77337 11068 ft 394 kts 47°
2026-05-05 15:26 39.48493 2.80019 11648 ft 399 kts 47°
2026-05-05 15:26 39.50350 2.82721 12245 ft 404 kts 48°
2026-05-05 15:26 39.52209 2.85479 12837 ft 409 kts 48°
2026-05-05 15:26 39.54051 2.88252 13409 ft 414 kts 49°
2026-05-05 15:27 39.55928 2.91105 13956 ft 418 kts 49°
2026-05-05 15:27 39.57821 2.93991 14452 ft 422 kts 49°
2026-05-05 15:27 39.59737 2.96913 14961 ft 427 kts 49°
2026-05-05 15:27 39.61669 2.99849 15465 ft 430 kts 48°
2026-05-05 15:28 39.63626 3.02817 15949 ft 434 kts 48°
2026-05-05 15:28 39.65597 3.05806 16409 ft 438 kts 48°
2026-05-05 15:28 39.67589 3.08827 16906 ft 441 kts 48°
2026-05-05 15:28 39.68912 3.10833 17245 ft 443 kts 48°
2026-05-05 15:29 39.70923 3.13890 17741 ft 446 kts 48°
2026-05-05 15:29 39.72946 3.16968 18210 ft 450 kts 48°
2026-05-05 15:29 39.74981 3.20071 18600 ft 453 kts 48°
2026-05-05 15:29 39.77030 3.23202 18998 ft 457 kts 48°
2026-05-05 15:30 39.79099 3.26363 19365 ft 461 kts 48°
2026-05-05 15:30 39.81186 3.29553 19740 ft 465 kts 48°
2026-05-05 15:30 39.83289 3.32769 20114 ft 468 kts 48°
2026-05-05 15:30 39.85410 3.36017 20493 ft 472 kts 48°
2026-05-05 15:31 39.87543 3.39284 20834 ft 475 kts 48°
2026-05-05 15:31 39.89692 3.42584 21192 ft 479 kts 48°
2026-05-05 15:31 39.91852 3.45906 21563 ft 482 kts 48°
2026-05-05 15:31 39.94026 3.49249 21900 ft 485 kts 48°
2026-05-05 15:32 39.96222 3.52631 22255 ft 489 kts 48°
2026-05-05 15:32 39.98427 3.56028 22605 ft 492 kts 48°
2026-05-05 15:32 40.00643 3.59448 22922 ft 495 kts 48°
2026-05-05 15:32 40.02875 3.62896 23245 ft 499 kts 48°
2026-05-05 15:33 40.05122 3.66363 23545 ft 502 kts 48°
2026-05-05 15:33 40.07378 3.69851 23811 ft 505 kts 48°
2026-05-05 15:33 40.09646 3.73369 24094 ft 507 kts 49°
2026-05-05 15:33 40.11918 3.76906 24376 ft 509 kts 49°
2026-05-05 15:34 40.14199 3.80460 24647 ft 512 kts 49°
2026-05-05 15:34 40.16491 3.84027 24934 ft 513 kts 49°
2026-05-05 15:34 40.18763 3.87565 25223 ft 515 kts 49°
2026-05-05 15:34 40.21068 3.91161 25501 ft 517 kts 49°
2026-05-05 15:35 40.23385 3.94780 25763 ft 519 kts 49°
2026-05-05 15:35 40.25707 3.98410 26006 ft 521 kts 49°
2026-05-05 15:35 40.28038 4.02058 26249 ft 523 kts 49°
2026-05-05 15:35 40.30380 4.05731 26479 ft 525 kts 49°
2026-05-05 15:36 40.32723 4.09411 26715 ft 528 kts 49°
2026-05-05 15:36 40.35078 4.13113 26948 ft 530 kts 49°
2026-05-05 15:36 40.37441 4.16828 27175 ft 532 kts 49°
2026-05-05 15:36 40.39819 4.20564 27373 ft 534 kts 49°
2026-05-05 15:37 40.42199 4.24312 27660 ft 535 kts 49°
2026-05-05 15:37 40.44594 4.28050 27979 ft 534 kts 46°
2026-05-05 15:37 40.47255 4.31440 28278 ft 532 kts 37°
2026-05-05 15:37 40.50241 4.34288 28576 ft 529 kts 28°
2026-05-05 15:38 40.53474 4.36533 28874 ft 524 kts 19°
2026-05-05 15:38 40.56878 4.38152 29167 ft 518 kts
2026-05-05 15:38 40.60374 4.39152 29458 ft 513 kts
2026-05-05 15:38 40.63888 4.39983 29764 ft 513 kts
2026-05-05 15:39 40.67399 4.40817 30056 ft 513 kts
2026-05-05 15:39 40.70912 4.41654 30318 ft 513 kts
2026-05-05 15:39 40.74426 4.42498 30594 ft 513 kts
2026-05-05 15:39 40.77932 4.43346 30866 ft 512 kts
2026-05-05 15:40 40.81447 4.44198 31141 ft 512 kts
2026-05-05 15:40 40.84947 4.45044 31428 ft 512 kts
2026-05-05 15:40 40.88461 4.45893 31676 ft 512 kts
2026-05-05 15:40 40.91963 4.46738 31941 ft 512 kts
2026-05-05 15:41 40.95466 4.47585 32210 ft 512 kts
2026-05-05 15:41 40.98972 4.48436 32478 ft 512 kts
2026-05-05 15:41 41.02472 4.49288 32748 ft 511 kts
2026-05-05 15:41 41.05975 4.50140 33055 ft 511 kts
2026-05-05 15:42 41.09485 4.50990 33269 ft 512 kts
2026-05-05 15:42 41.12990 4.51839 33521 ft 512 kts
2026-05-05 15:42 41.16494 4.52690 33776 ft 512 kts
2026-05-05 15:42 41.20001 4.53544 33895 ft 513 kts
2026-05-05 15:43 41.23518 4.54405 33909 ft 514 kts
2026-05-05 15:43 41.30562 4.56133 33901 ft 515 kts
2026-05-05 15:44 41.37622 4.57857 33895 ft 516 kts
2026-05-05 15:44 41.44678 4.59586 33908 ft 515 kts
2026-05-05 15:45 41.51700 4.61318 33917 ft 516 kts
2026-05-05 15:45 41.58762 4.63067 33907 ft 516 kts
2026-05-05 15:46 41.65836 4.64819 33905 ft 516 kts
2026-05-05 15:46 41.72858 4.67050 33923 ft 525 kts 15°
2026-05-05 15:47 41.79400 4.71522 33906 ft 532 kts 28°
2026-05-05 15:47 41.85739 4.76640 33900 ft 532 kts 28°
2026-05-05 15:48 41.92086 4.81744 33916 ft 532 kts 28°
2026-05-05 15:48 41.98450 4.86878 33904 ft 533 kts 28°
2026-05-05 15:49 42.04810 4.92021 33902 ft 533 kts 28°
2026-05-05 15:49 42.11166 4.97178 33906 ft 534 kts 28°
2026-05-05 15:50 42.17540 5.02363 33903 ft 535 kts 28°
2026-05-05 15:50 42.23914 5.07571 33894 ft 536 kts 28°
2026-05-05 15:51 42.30253 5.12750 33929 ft 536 kts 28°
2026-05-05 15:51 42.36641 5.17971 33907 ft 537 kts 28°
2026-05-05 15:52 42.43033 5.23216 33910 ft 537 kts 28°
2026-05-05 15:52 42.49423 5.28479 33947 ft 538 kts 28°
2026-05-05 15:53 42.55821 5.33757 33885 ft 538 kts 28°
2026-05-05 15:53 42.62221 5.39041 33902 ft 538 kts 28°
2026-05-05 15:54 42.68618 5.44343 33909 ft 539 kts 28°
2026-05-05 15:54 42.75019 5.49673 33917 ft 539 kts 28°
2026-05-05 15:55 42.81376 5.54971 33929 ft 539 kts 28°
2026-05-05 15:55 42.87771 5.60311 33934 ft 539 kts 28°
2026-05-05 15:56 42.94159 5.65664 33943 ft 539 kts 28°
2026-05-05 15:56 43.00557 5.71036 33933 ft 539 kts 28°
2026-05-05 15:57 43.06946 5.76411 33929 ft 538 kts 28°
2026-05-05 15:57 43.13319 5.81786 33956 ft 538 kts 28°
2026-05-05 15:58 43.19690 5.87169 33946 ft 538 kts 28°
2026-05-05 15:58 43.26057 5.92573 33942 ft 538 kts 28°
2026-05-05 15:59 43.32418 5.97988 33952 ft 538 kts 28°
2026-05-05 15:59 43.39046 6.02592 33928 ft 530 kts 14°
2026-05-05 16:00 43.46131 6.04737 33909 ft 515 kts 357°
2026-05-05 16:00 43.53265 6.05445 33918 ft 514 kts 356°
2026-05-05 16:01 43.60409 6.06154 33912 ft 515 kts 356°
2026-05-05 16:01 43.67551 6.06884 33920 ft 515 kts 356°
2026-05-05 16:02 43.74694 6.07805 33918 ft 520 kts
2026-05-05 16:02 43.81657 6.10891 33903 ft 534 kts 21°
2026-05-05 16:03 43.88326 6.15451 33932 ft 534 kts 22°
2026-05-05 16:03 43.94989 6.20009 33930 ft 533 kts 22°
2026-05-05 16:04 44.01642 6.24567 33939 ft 533 kts 22°
2026-05-05 16:04 44.08285 6.29113 33963 ft 532 kts 22°
2026-05-05 16:05 44.14928 6.33671 33951 ft 531 kts 22°
2026-05-05 16:05 44.21497 6.38214 33945 ft 530 kts 22°
2026-05-05 16:06 44.28095 6.42774 33956 ft 528 kts 22°
2026-05-05 16:06 44.34673 6.47320 33911 ft 527 kts 22°
2026-05-05 16:07 44.41239 6.51879 33906 ft 526 kts 22°
2026-05-05 16:07 44.47795 6.56445 33954 ft 525 kts 22°
2026-05-05 16:08 44.54322 6.61001 33941 ft 523 kts 22°
2026-05-05 16:08 44.60832 6.65570 33941 ft 523 kts 22°
2026-05-05 16:09 44.67346 6.70149 33943 ft 522 kts 22°
2026-05-05 16:09 44.73852 6.74707 33945 ft 522 kts 21°
2026-05-05 16:10 44.79460 6.77564 33950 ft 512 kts
2026-05-05 16:10 44.86407 6.78616 33949 ft 494 kts 350°
2026-05-05 16:11 44.93260 6.78149 33951 ft 492 kts 349°
2026-05-05 16:12 45.06956 6.77268 33955 ft 492 kts 350°
2026-05-05 16:13 45.24046 6.76142 33931 ft 492 kts 349°
2026-05-05 16:13 45.30892 6.75680 33922 ft 492 kts 349°
2026-05-05 16:14 45.44539 6.74766 33916 ft 493 kts 349°
2026-05-05 16:15 45.58301 6.73843 33925 ft 494 kts 350°
2026-05-05 16:16 45.72057 6.72881 33922 ft 495 kts 350°
2026-05-05 16:17 45.82368 6.72184 33937 ft 494 kts 351°
2026-05-05 16:18 45.92638 6.71474 33954 ft 493 kts 351°
2026-05-05 16:19 46.02892 6.70795 33946 ft 489 kts 352°
2026-05-05 16:19 46.13059 6.70666 33935 ft 495 kts
2026-05-05 16:20 46.26455 6.75958 33932 ft 497 kts 13°
2026-05-05 16:22 46.42988 6.82977 33920 ft 495 kts 13°
2026-05-05 16:23 46.55765 6.90350 33869 ft 501 kts 34°
2026-05-05 16:23 46.62972 7.01367 33866 ft 504 kts 51°
2026-05-05 16:24 46.67383 7.09312 33869 ft 504 kts 51°
2026-05-05 16:25 46.74004 7.21263 33873 ft 506 kts 51°
2026-05-05 16:25 46.80590 7.33239 33919 ft 503 kts 52°
2026-05-05 16:26 46.89315 7.49210 33872 ft 502 kts 52°
2026-05-05 16:27 46.93663 7.57217 33876 ft 503 kts 52°
2026-05-05 16:27 46.97996 7.65227 33890 ft 501 kts 52°
2026-05-05 16:28 47.02312 7.73225 33891 ft 499 kts 52°
2026-05-05 16:28 47.06617 7.81202 33887 ft 498 kts 52°
2026-05-05 16:29 47.10912 7.89178 33889 ft 498 kts 52°
2026-05-05 16:29 47.14967 7.97374 33891 ft 494 kts 59°
2026-05-05 16:30 47.18616 8.05924 33891 ft 492 kts 59°
2026-05-05 16:30 47.22236 8.14452 33885 ft 491 kts 59°
2026-05-05 16:31 47.25853 8.22988 33886 ft 491 kts 59°
2026-05-05 16:31 47.29949 8.31005 33851 ft 491 kts 45°
2026-05-05 16:32 47.35419 8.36970 33837 ft 490 kts 26°
2026-05-05 16:32 47.41569 8.41336 33834 ft 491 kts 24°
2026-05-05 16:33 47.47731 8.45703 33884 ft 492 kts 24°
2026-05-05 16:33 47.53897 8.50088 33893 ft 491 kts 25°
2026-05-05 16:34 47.60012 8.54450 33887 ft 491 kts 25°
2026-05-05 16:34 47.66201 8.58859 33876 ft 490 kts 25°
2026-05-05 16:35 47.72309 8.63222 33874 ft 489 kts 25°
2026-05-05 16:35 47.78426 8.67610 33866 ft 487 kts 25°
2026-05-05 16:36 47.84528 8.72006 33860 ft 487 kts 25°
2026-05-05 16:36 47.90626 8.76399 33858 ft 486 kts 26°
2026-05-05 16:37 47.96698 8.80799 33868 ft 484 kts 26°
2026-05-05 16:37 48.02752 8.85207 33865 ft 483 kts 26°
2026-05-05 16:38 48.08792 8.89594 33859 ft 483 kts 26°
2026-05-05 16:38 48.14873 8.93875 33864 ft 481 kts 21°
2026-05-05 16:39 48.21384 8.96053 33865 ft 479 kts
2026-05-05 16:39 48.28015 8.97028 33858 ft 479 kts
2026-05-05 16:40 48.34638 8.98051 33850 ft 478 kts
2026-05-05 16:40 48.41261 8.99078 33842 ft 478 kts
2026-05-05 16:41 48.47829 9.00086 33840 ft 477 kts
2026-05-05 16:41 48.54421 9.01282 33747 ft 475 kts
2026-05-05 16:42 48.57682 9.01928 33333 ft 468 kts
2026-05-05 16:42 48.60880 9.02568 32924 ft 460 kts
2026-05-05 16:42 48.64036 9.03189 32522 ft 453 kts
2026-05-05 16:42 48.67195 9.03798 32115 ft 464 kts
2026-05-05 16:43 48.70417 9.04410 31701 ft 469 kts
2026-05-05 16:43 48.73661 9.05025 31280 ft 468 kts
2026-05-05 16:43 48.76882 9.05634 30879 ft 466 kts
2026-05-05 16:43 48.80096 9.06243 30482 ft 463 kts
2026-05-05 16:44 48.83285 9.06851 30088 ft 460 kts
2026-05-05 16:44 48.86447 9.07457 29561 ft 457 kts
2026-05-05 16:44 48.89593 9.08064 28994 ft 453 kts
2026-05-05 16:44 48.92707 9.08665 28438 ft 449 kts
2026-05-05 16:45 48.95794 9.09258 27882 ft 445 kts
2026-05-05 16:45 48.98856 9.09845 27349 ft 441 kts
2026-05-05 16:45 49.01891 9.10421 26826 ft 438 kts
2026-05-05 16:45 49.04901 9.10921 26324 ft 434 kts
2026-05-05 16:46 49.07908 9.11355 25813 ft 431 kts
2026-05-05 16:46 49.10843 9.11745 25325 ft 428 kts
2026-05-05 16:46 49.13823 9.12129 24834 ft 424 kts
2026-05-05 16:46 49.16735 9.12507 24351 ft 421 kts
2026-05-05 16:47 49.19641 9.12897 23883 ft 418 kts
2026-05-05 16:47 49.22533 9.13304 23415 ft 415 kts
2026-05-05 16:47 49.25438 9.13723 22850 ft 413 kts
2026-05-05 16:47 49.28258 9.14184 22260 ft 411 kts
2026-05-05 16:48 49.31038 9.15108 21681 ft 409 kts 14°
2026-05-05 16:48 49.33807 9.16107 21109 ft 407 kts 13°
2026-05-05 16:48 49.36566 9.17092 20540 ft 404 kts 13°
2026-05-05 16:48 49.39271 9.18049 19989 ft 396 kts 13°
2026-05-05 16:49 49.41940 9.18985 19388 ft 391 kts 13°
2026-05-05 16:49 49.44577 9.19912 18789 ft 387 kts 12°
2026-05-05 16:49 49.47194 9.20837 18193 ft 384 kts 12°
2026-05-05 16:49 49.49787 9.21758 17518 ft 381 kts 12°
2026-05-05 16:50 49.51527 9.22377 17048 ft 378 kts 12°
2026-05-05 16:50 49.54077 9.23288 16376 ft 374 kts 12°
2026-05-05 16:50 49.56604 9.24193 15715 ft 370 kts 12°
2026-05-05 16:50 49.59077 9.25081 15068 ft 361 kts 12°
2026-05-05 16:51 49.61504 9.25948 14439 ft 354 kts 12°
2026-05-05 16:51 49.63887 9.26797 13819 ft 349 kts 13°
2026-05-05 16:51 49.66209 9.27625 13157 ft 344 kts 12°
2026-05-05 16:51 49.68522 9.28452 12477 ft 339 kts 12°
2026-05-05 16:52 49.70799 9.29271 11796 ft 334 kts 12°
2026-05-05 16:52 49.73042 9.30084 11157 ft 329 kts 13°
2026-05-05 16:52 49.75266 9.30888 10519 ft 325 kts 12°
2026-05-05 16:52 49.77446 9.31674 9989 ft 317 kts 13°
2026-05-05 16:53 49.79581 9.32444 9838 ft 315 kts 13°
2026-05-05 16:53 49.81711 9.33203 9828 ft 314 kts 10°
2026-05-05 16:53 49.83879 9.33236 9831 ft 313 kts 347°
2026-05-05 16:53 49.86013 9.32532 9832 ft 314 kts 355°
2026-05-05 16:54 49.88187 9.32748 9834 ft 314 kts
2026-05-05 16:54 49.90338 9.33327 9830 ft 314 kts 11°
2026-05-05 16:54 49.92488 9.33944 9830 ft 314 kts 11°
2026-05-05 16:54 49.94579 9.34550 9823 ft 293 kts 11°
2026-05-05 16:55 49.96507 9.35106 9826 ft 274 kts 11°
2026-05-05 16:55 49.98365 9.35643 9828 ft 270 kts 11°
2026-05-05 16:55 50.00207 9.36176 9829 ft 269 kts 11°
2026-05-05 16:55 50.02051 9.36715 9833 ft 270 kts 11°
2026-05-05 16:56 50.03893 9.37251 9830 ft 268 kts 11°
2026-05-05 16:56 50.05727 9.37778 9830 ft 268 kts 11°
2026-05-05 16:56 50.07562 9.38291 9830 ft 268 kts 11°
2026-05-05 16:56 50.09401 9.38799 9757 ft 270 kts 11°
2026-05-05 16:57 50.11259 9.39314 9354 ft 272 kts 11°
2026-05-05 16:57 50.13123 9.39833 8961 ft 273 kts 11°
2026-05-05 16:57 50.14997 9.40361 8569 ft 274 kts 11°
2026-05-05 16:57 50.16872 9.40889 8184 ft 274 kts 11°
2026-05-05 16:58 50.18740 9.41418 7798 ft 270 kts 11°
2026-05-05 16:58 50.20593 9.41838 7423 ft 269 kts 359°
2026-05-05 16:58 50.22392 9.41142 7042 ft 267 kts 329°
2026-05-05 16:58 50.23710 9.39217 6823 ft 254 kts 297°
2026-05-05 16:59 50.24180 9.36667 6822 ft 243 kts 266°
2026-05-05 16:59 50.23945 9.34088 6501 ft 244 kts 253°
2026-05-05 16:59 50.23468 9.31533 6135 ft 246 kts 250°
2026-05-05 16:59 50.22959 9.29003 5740 ft 241 kts 250°
2026-05-05 17:00 50.22457 9.26542 5360 ft 235 kts 250°
2026-05-05 17:00 50.21907 9.24164 5029 ft 230 kts 247°
2026-05-05 17:00 50.21314 9.21824 5000 ft 230 kts 247°
2026-05-05 17:00 50.20720 9.19532 5005 ft 230 kts 246°
2026-05-05 17:01 50.20120 9.17217 4996 ft 229 kts 246°
2026-05-05 17:01 50.19523 9.14912 4996 ft 229 kts 246°
2026-05-05 17:01 50.18929 9.12601 4997 ft 230 kts 246°
2026-05-05 17:01 50.18334 9.10284 4994 ft 230 kts 246°
2026-05-05 17:02 50.17739 9.07969 4996 ft 230 kts 246°
2026-05-05 17:02 50.17098 9.05689 4995 ft 229 kts 242°
2026-05-05 17:02 50.16429 9.03435 4997 ft 229 kts 246°
2026-05-05 17:02 50.15853 9.01114 4998 ft 230 kts 248°
2026-05-05 17:03 50.15305 8.98768 5000 ft 230 kts 248°
2026-05-05 17:03 50.14759 8.96425 4996 ft 229 kts 248°
2026-05-05 17:03 50.14212 8.94088 4997 ft 226 kts 248°
2026-05-05 17:03 50.13690 8.91857 4996 ft 212 kts 248°
2026-05-05 17:04 50.13209 8.89803 5006 ft 192 kts 248°
2026-05-05 17:04 50.12770 8.87935 4994 ft 175 kts 248°
2026-05-05 17:04 50.12361 8.86198 4947 ft 167 kts 247°
2026-05-05 17:04 50.11962 8.84502 4783 ft 167 kts 247°
2026-05-05 17:05 50.11563 8.82812 4571 ft 165 kts 248°
2026-05-05 17:05 50.11169 8.81140 4343 ft 164 kts 248°
2026-05-05 17:05 50.10778 8.79481 4108 ft 163 kts 248°
2026-05-05 17:05 50.10388 8.77831 3876 ft 161 kts 248°
2026-05-05 17:06 50.10003 8.76199 3652 ft 161 kts 249°
2026-05-05 17:06 50.09621 8.74583 3429 ft 161 kts 249°
2026-05-05 17:06 50.09240 8.72972 3205 ft 158 kts 249°
2026-05-05 17:06 50.08859 8.71363 2974 ft 160 kts 250°
2026-05-05 17:07 50.08470 8.69721 2748 ft 159 kts 250°
2026-05-05 17:07 50.08100 8.68159 2548 ft 149 kts 250°
2026-05-05 17:07 50.07749 8.66681 2325 ft 142 kts 250°
2026-05-05 17:07 50.07406 8.65240 2109 ft 139 kts 250°
2026-05-05 17:08 50.07069 8.63851 1927 ft 138 kts 250°
2026-05-05 17:08 50.06714 8.62452 1798 ft 139 kts 249°
2026-05-05 17:08 50.06387 8.61034 1601 ft 138 kts 251°
2026-05-05 17:08 50.06067 8.59624 1345 ft 138 kts 251°
2026-05-05 17:09 50.05734 8.58218 1104 ft 139 kts 251°
2026-05-05 17:09 50.05405 8.56808 875 ft 139 kts 250°
2026-05-05 17:09 50.05065 8.55397 684 ft 139 kts 250°
2026-05-05 17:09 50.04729 8.53991 471 ft 138 kts 249°
2026-05-05 17:10 50.04403 8.52625 351 ft 126 kts 249°
2026-05-05 17:10 50.04175 8.51687 333 ft 51 kts 244°
2026-05-05 17:10 50.04013 8.51421 330 ft 24 kts 218°
2026-05-05 17:10 50.03914 8.51412 336 ft 14 kts 98°
2026-05-05 17:11 50.03937 8.51571 332 ft 19 kts 71°
2026-05-05 17:11 50.03986 8.51767 334 ft 19 kts 69°
2026-05-05 17:11 50.04034 8.51970 339 ft 21 kts 70°
2026-05-05 17:11 50.04084 8.52186 348 ft 21 kts 70°
2026-05-05 17:12 50.04132 8.52391 350 ft 21 kts 70°
2026-05-05 17:12 50.04184 8.52604 355 ft 20 kts 69°
2026-05-05 17:12 50.04232 8.52807 353 ft 24 kts 70°
2026-05-05 17:12 50.04298 8.53075 358 ft 27 kts 69°
2026-05-05 17:13 50.04364 8.53350 372 ft 26 kts 70°
2026-05-05 17:13 50.04401 8.53609 375 ft 25 kts 84°
2026-05-05 17:13 50.04420 8.53886 375 ft 27 kts 84°
2026-05-05 17:13 50.04440 8.54165 375 ft 25 kts 86°
2026-05-05 17:14 50.04446 8.54442 370 ft 24 kts 88°
2026-05-05 17:14 50.04381 8.54698 361 ft 26 kts 134°
2026-05-05 17:14 50.04268 8.54796 361 ft 18 kts 159°
2026-05-05 17:14 50.04209 8.54829 358 ft 4 kts 159°
2026-05-05 17:15 50.04207 8.54830 358 ft 0 kts 158°
2026-05-05 17:15 50.04166 8.54855 356 ft 12 kts 159°
2026-05-05 17:16 50.04076 8.54907 351 ft 14 kts 160°
2026-05-05 17:16 50.03988 8.54957 354 ft 12 kts 159°
2026-05-05 17:16 50.03877 8.55024 355 ft 21 kts 155°
2026-05-05 17:16 50.03866 8.55189 351 ft 14 kts 68°
2026-05-05 17:17 50.03903 8.55342 353 ft 15 kts 70°
2026-05-05 17:17 50.03940 8.55499 356 ft 16 kts 70°
2026-05-05 17:17 50.03981 8.55674 350 ft 17 kts 69°
2026-05-05 17:17 50.04024 8.55851 357 ft 17 kts 70°
2026-05-05 17:18 50.04047 8.55945 355 ft 0 kts 69°
2026-05-05 17:19 50.04057 8.55977 357 ft 10 kts 66°
2026-05-05 17:19 50.04089 8.56115 355 ft 18 kts 71°
2026-05-05 17:19 50.04119 8.56243 358 ft 9 kts 68°
2026-05-05 17:19 50.04160 8.56282 353 ft 8 kts
2026-05-05 17:20 50.04230 8.56245 360 ft 11 kts 339°
2026-05-05 17:20 50.04285 8.56188 356 ft 10 kts 296°
2026-05-05 17:20 50.04310 8.56075 359 ft 12 kts 324°
2026-05-05 17:20 50.04379 8.56037 356 ft 9 kts 345°
2026-05-05 17:21 50.04430 8.56042 356 ft 7 kts 32°
2026-05-05 17:21 50.04449 8.56101 361 ft 6 kts 73°
2026-05-05 17:21 50.04462 8.56176 360 ft 6 kts 98°
2026-05-05 17:22 50.04413 8.56216 358 ft 2 kts 159°
2026-05-05 17:22 50.04407 8.56219 357 ft 0 kts 159°